Flag for U.S.A. Weather past 2 weeks in Asheville, North Carolina, U.S.A.

Now
45 °F

Clear.


Feels Like: 38 °F
Forecast: 38 / 62 °F
Wind: 15 mph from North

Location: Asheville Regional Airport

Current Time: Oct 23, 2014 at 2:46:56 AM

Latest Report: Oct 23, 2014 at 1:54 AM


Visibility: 10 mi

Pressure: 30.12 "Hg

Humidity: 68%

Dew point: 35 °F

Location of AshevilleLocation

Historic Weather in Asheville — Graph

°F

Asheville temperature yesterday

Maximum temperature yesterday: 56 °F (at 1:54 PM)
Minimum temperature yesterday: 45 °F (at 2:54 AM)
Average temperature yesterday: 49 °F

Past Weeks' High & Low Weather Summary

 TemperatureHumidityPressure
High80 °F (Oct 8, 2:54 PM)100% (Oct 15, 2:54 AM)30.25 "Hg (Oct 15, 2:54 AM)
Low39 °F (Oct 20, 6:54 AM)23% (Oct 19, 3:54 PM)29.73 "Hg (Oct 14, 7:54 PM)
Average59 °F77%30.00 "Hg
* Reported Oct 8 1:54 AM — Oct 23 1:54 AM, Asheville, Weather by CustomWeather, © 2014

Note: Actual official high and low records may vary slightly from our data, if they occured in-between our weather recording intervals... More about our weather records

Advertising

Asheville weather history for previous 24 hours

 ConditionsComfort  
Time TempWeatherWind HumidityBarometerVisibility
1:54 AM
Oct 23
45 °FClear.15 mph68%30.12 "Hg10 mi
12:54 AM45 °FClear.18 mph68%30.13 "Hg10 mi
11:54 PM
Oct 22
45 °FClear.17 mph71%30.14 "Hg10 mi
10:54 PM46 °FClear.13 mph68%30.15 "Hg10 mi
9:54 PM46 °FClear.14 mph68%30.14 "Hg10 mi
8:54 PM47 °FClear.16 mph69%30.14 "Hg10 mi
7:54 PM49 °FClear.20 mph64%30.14 "Hg10 mi
6:54 PM51 °FOvercast.17 mph59%30.13 "Hg10 mi
5:54 PM53 °FPartly sunny.18 mph52%30.12 "Hg10 mi
4:54 PM55 °FSunny.20 mph49%30.11 "Hg10 mi
3:54 PM56 °FSunny.14 mph49%30.11 "Hg10 mi
2:54 PM56 °FSunny.20 mph49%30.10 "Hg10 mi
1:54 PM56 °FSunny.13 mph47%30.10 "Hg10 mi
12:54 PM54 °FSunny.15 mph51%30.13 "Hg10 mi
11:54 AM52 °FPassing clouds.17 mph53%30.14 "Hg10 mi
10:54 AM50 °FPartly sunny.17 mph57%30.14 "Hg10 mi
9:54 AM50 °FPartly sunny.17 mph57%30.12 "Hg10 mi
8:54 AM48 °FPassing clouds.12 mph63%30.10 "Hg10 mi
7:54 AM45 °FPassing clouds.8 mph68%30.08 "Hg10 mi
6:54 AM45 °FClear.13 mph65%30.06 "Hg10 mi
5:54 AM46 °FPassing clouds.12 mph63%30.03 "Hg10 mi
4:54 AM45 °FClear.14 mph68%30.03 "Hg10 mi
3:54 AM45 °FClear.10 mph68%30.01 "Hg10 mi
2:54 AM45 °FClear.12 mph65%30.00 "Hg10 mi
Weather by CustomWeather, © 2014

See weather overviewHow to use our weather pages